Weather History for KPSC - March, 2014

Change the Weather History Date:

Saturday, March 22, 2014

  Actual Average Record
Temperature  
Mean Temperature 39 °F 48 °F  
Max Temperature 57 °F 61 °F 71 °F (2001)
Min Temperature 21 °F 35 °F 21 °F (2014)
Degree Days  
Heating Degree Days 26 17  
Month to date heating degree days 421 438  
Since 1 July heating degree days 4650 4321  
Cooling Degree Days 0 0  
Month to date cooling degree days 0 0  
Year to date cooling degree days 0 0  
Moisture  
Dew Point 21 °F    
Average Humidity 57    
Maximum Humidity 92    
Minimum Humidity 22    
Precipitation  
Precipitation 0.00 in 0.03 in 0.32 in (2009)
Month to date precipitation 0.42 0.56  
Year to date precipitation 1.40 2.64  
Snow  
Snow 0.00 in - - ()
Snow Depth 0.00 in    
Sea Level Pressure  
Sea Level Pressure 30.28 in    
Wind  
Wind Speed 3 mph (East)    
Max Wind Speed 9 mph    
Max Gust Speed 12 mph    
Visibility 10 miles    
Events      
T = Trace of Precipitation, MM = Missing Value Source: NWS Daily Summary

Daily Weather History Graph

Daily Weather History Graph

Search for Another Location

Airport or City:

Trip Planner

Search our weather history database for the weather conditions in past years. The results will help you decide how hot, cold, wet, or windy it might be!

Date:

Astronomy

Mar. 22, 2014 Rise Set
Actual Time 6:55 AM PDT 7:11 PM PDT
Civil Twilight 6:25 AM PDT 7:41 PM PDT
Nautical Twilight 5:50 AM PDT 8:17 PM PDT
Astronomical Twilight 5:13 AM PDT 8:53 PM PDT
Moon 12:52 AM PDT (3/22) 10:26 AM PDT (3/22)
Length of Visible Light 13h 16m
Length of Day
12h 16m
Waning Gibbous, 64% of the Moon is Illuminated
Mar 22
Waning Gibbous
Mar 23
Last Quarter
Mar 30
New
Apr 7
First Quarter
Apr 15
Full

Hourly Weather History & Observations

Time (PDT) Temp. Windchill Dew Point Humidity Pressure Visibility Wind Dir Wind Speed Gust Speed Precip Events Conditions
12:53 AM 28.9 °F 23.9 °F 21.9 °F 75% 30.30 in 10.0 mi NNE 4.6 mph - N/A   Clear
1:53 AM 25.0 °F 19.3 °F 21.0 °F 85% 30.31 in 10.0 mi North 4.6 mph - N/A   Clear
2:53 AM 26.1 °F 20.5 °F 19.9 °F 78% 30.32 in 10.0 mi North 4.6 mph - N/A   Clear
3:53 AM 24.1 °F 19.7 °F 21.0 °F 88% 30.33 in 10.0 mi NNW 3.5 mph - N/A   Clear
4:53 AM 21.9 °F - 19.9 °F 92% 30.35 in 10.0 mi Calm Calm - N/A   Clear
5:53 AM 21.9 °F 17.2 °F 19.0 °F 89% 30.36 in 10.0 mi NNW 3.5 mph - N/A   Clear
6:53 AM 21.0 °F - 19.0 °F 92% 30.37 in 10.0 mi Calm Calm - N/A   Clear
7:53 AM 25.0 °F - 23.0 °F 92% 30.38 in 10.0 mi Calm Calm - N/A   Clear
8:53 AM 33.1 °F - 26.1 °F 75% 30.38 in 10.0 mi Calm Calm - N/A   Clear
9:53 AM 37.9 °F - 25.0 °F 60% 30.38 in 10.0 mi Calm Calm - N/A   Clear
10:53 AM 42.1 °F - 23.0 °F 47% 30.37 in 10.0 mi Calm Calm - N/A   Clear
11:53 AM 48.0 °F - 23.0 °F 37% 30.35 in 10.0 mi Calm Calm - N/A   Clear
12:53 PM 52.0 °F - 21.9 °F 31% 30.32 in 10.0 mi Variable 3.5 mph - N/A   Clear
1:53 PM 53.1 °F - 19.0 °F 26% 30.30 in 10.0 mi Variable 4.6 mph - N/A   Clear
2:53 PM 55.0 °F - 19.0 °F 24% 30.26 in 10.0 mi Variable 3.5 mph - N/A   Clear
3:53 PM 55.9 °F - 18.0 °F 23% 30.24 in 10.0 mi Calm Calm - N/A   Clear
4:53 PM 55.9 °F - 17.1 °F 22% 30.22 in 10.0 mi Calm Calm - N/A   Clear
5:53 PM 55.0 °F - 18.0 °F 23% 30.20 in 10.0 mi ESE 5.8 mph - N/A   Clear
6:53 PM 53.1 °F - 19.0 °F 26% 30.19 in 10.0 mi SE 4.6 mph - N/A   Clear
7:53 PM 50.0 °F - 19.9 °F 31% 30.18 in 10.0 mi SSE 4.6 mph - N/A   Clear
8:53 PM 46.9 °F - 21.0 °F 36% 30.18 in 10.0 mi SSE 3.5 mph - N/A   Clear
9:53 PM 44.1 °F 41.5 °F 25.0 °F 47% 30.18 in 10.0 mi SSE 4.6 mph - N/A   Clear
10:53 PM 43.0 °F 40.3 °F 26.1 °F 51% 30.17 in 10.0 mi SSE 4.6 mph - N/A   Clear
11:53 PM 37.9 °F - 27.0 °F 65% 30.17 in 10.0 mi Calm Calm - N/A   Clear